{"data":{"norad_id":62223,"epoch":"2026-05-25T03:31:12.218016Z","epoch_age_seconds":59076,"freshness":"FRESH","line1":"1 62223U 24231F   26145.14666919  .00179012  00000+0  14498-2 0  9994","line2":"2 62223  53.1561  84.0891 0001492  52.1547 307.9606 15.69726652 85427","mean_motion":15.69726652,"eccentricity":0.0001492,"inclination_deg":53.1561,"raan_deg":84.0891,"arg_perigee_deg":52.1547,"mean_anomaly_deg":307.9606,"bstar":0.0014498,"rev_number":8542,"period_min":91.735717054003,"perigee_km":358.67381702908,"apogee_km":360.68438135308,"semimajor_km":6737.8160991911,"source":"CELESTRAK","updated_at":"2026-05-25T13:38:19.614000Z"}}